Regional Weather Roundup
Issued by NWS Sioux Falls, SD

Home | Current Version | Previous Version | Graphics & Text | Print | Product List | Glossary Off
Versions: 1 2 3 4 5 6 7 8 9 10 11 12 13 14 15 16 17 18 19 20 21 22 23 24 25 26 27 28 29 30 31 32 33 34 35 36 37 38 39 40 41 42 43 44 45 46 47 48 49 50

000
ASUS43 KFSD 041702
RWRFSD

WEATHER ROUNDUP FOR SE SOUTH DAKOTA/SW MINNESOTA/NW IOWA
NATIONAL WEATHER SERVICE SIOUX FALLS SD
1100 AM CST WED MAR 04 2015

NOTE: "FAIR" INDICATES FEW OR NO CLOUDS BELOW 12,000 FEET WITH NO
SIGNIFICANT WEATHER AND OR OBSTRUCTIONS TO VISIBILITY.


SDZ038>040-050-052>070-041800-
SOUTHEAST SOUTH DAKOTA

CITY           SKY/WX    TMP DP  RH WIND       PRES   REMARKS
CHAMBERLAIN    NOT AVBL
HURON          SUNNY      7  -6  55 N22G29    30.33R WCI -14
MADISON        FLURRIES   7   1  78 NW21      30.23R WCI -13
MITCHELL       SUNNY     11  -3  53 N21G32    30.34R WCI  -8
SIOUX FALLS    MOSUNNY   12   1  61 NW23G30   30.26R WCI  -7
WINNER         FAIR      12  -2  53 NW15      30.30R WCI  -4
YANKTON        SUNNY     18  -4  38 NW24G31   30.32R WCI   0
$$

MNZ071-072-080-081-089-090-097-098-041800-
SOUTHWEST MINNESOTA

CITY           SKY/WX    TMP DP  RH WIND       PRES   REMARKS
FAIRMONT       SUNNY     10  -2  56 NW9       30.23S WCI  -2
JACKSON        MOSUNNY   10   3  72 VRB7      30.22R WCI   0
LUVERNE        SUNNY     14   3  62 NW23      30.24R WCI  -5
MARSHALL       PTSUNNY    9  -2  61 NW16      30.26R WCI  -9
MONTEVIDEO     MOSUNNY    9   1  72 N16G22    30.28R WCI  -9
PIPESTONE      SUNNY      7   0  72 N13G18    30.20R WCI  -9
REDWOOD FALLS  SUNNY      8  -2  63 W12       30.26R WCI  -7
TRACY          PTSUNNY   10   1  67 NW9       30.24R WCI  -3
WINDOM         MOSUNNY    9   0  66 NW9       30.22S WCI  -5
WORTHINGTON    PTSUNNY   10   1  67 NW17      30.22R WCI  -7
$$

IAZ001>003-012>014-020>022-031-032-NEZ013-014-SDZ071-041800-
NORTHWEST IOWA

CITY           SKY/WX    TMP DP  RH WIND       PRES   REMARKS
DENISON        SUNNY     23   5  46 W15       30.24F WCI  10
ESTHERVILLE    MOSUNNY   11  -1  58 NW10      30.23R WCI  -3
SIOUX CITY     SUNNY     23   5  46 NW20      30.28R WCI   8
SPENCER        MOSUNNY   21   6  52 W26G35    30.22R WCI   4
$$

ABBREVIATIONS USED IN REMARKS
   TC - TEMPERATURE IN CELSIUS
  WCI - WIND CHILL INDEX
   HX - HEAT INDEX
  VSB - VISIBILITY




USA.gov is the U.S. government's official web portal to all federal, state and local government web resources and services.